Theta_e
327 324 325 326 324 317 312 308 293 297 299 292 290 290 290 297 297 296 297 299 297 301 303 302 302 303 301 299 300 301 301 300 298 293 292 304 322 324 326 330 338 339 338 340 343 346 347 347 350 351 352 352 353 352 352 351 351 350 350 350 348 349 349 349 349 349 349 349 349 349 349 349 349 348 348 349 348 348 349 348 347 347 347 347 347 347 348 347 346 345 343 343 341 340 339 338 337
323 321 321 321 317 312 303 303 294 291 292 290 289 291 294 295 295 296 296 298 300 302 301 301 301 303 303 303 300 305 301 303 302 303 314 324 322 327 330 331 338 338 338 340 343 345 346 346 348 351 352 352 352 351 351 352 351 350 350 350 348 349 349 349 349 349 350 350 349 349 349 349 349 348 348 348 348 348 348 347 347 347 346 346 347 348 346 346 345 344 342 341 339 338 337 336 335
321 320 322 317 314 310 307 302 293 290 288 285 288 292 294 293 294 297 299 300 301 302 301 301 303 303 304 302 301 300 298 305 307 314 318 324 318 320 330 330 335 339 339 340 343 344 345 345 346 351 352 352 352 352 351 351 351 350 349 350 349 349 349 349 349 349 349 349 349 349 349 348 348 348 348 347 347 347 347 347 347 346 346 346 347 347 346 344 344 342 341 340 338 336 335 334 332
324 323 322 311 305 307 300 297 292 292 290 287 288 292 294 294 296 298 299 301 300 300 302 303 302 305 302 299 301 304 301 304 306 314 314 318 316 317 329 329 330 340 340 341 342 343 344 344 346 350 352 352 352 352 351 351 351 350 349 350 349 349 349 349 350 349 349 349 349 349 348 348 348 348 347 347 347 346 347 346 346 346 346 346 345 344 343 343 342 341 340 339 337 334 333 332 331
321 323 322 312 305 299 300 297 292 289 288 287 287 293 295 296 299 300 300 300 300 300 302 303 300 304 305 304 304 299 300 306 308 313 318 320 325 329 329 328 329 339 339 340 341 343 343 343 345 349 352 352 352 352 352 351 351 350 350 350 349 349 349 349 349 350 349 349 349 349 349 349 348 348 347 346 346 345 345 345 346 345 343 344 343 342 341 340 339 339 338 337 335 332 331 330 329
322 320 320 311 303 305 299 292 289 290 292 292 290 293 294 297 299 300 299 301 302 300 301 301 301 302 302 303 304 300 304 303 308 315 320 320 327 332 329 328 327 337 339 339 340 342 342 341 345 349 352 352 351 352 352 352 351 350 350 349 349 349 349 349 349 349 349 349 349 349 349 348 348 347 346 345 345 344 343 343 343 342 340 340 340 339 337 337 337 336 336 335 333 330 329 328 327
315 312 310 305 305 301 293 289 288 290 293 295 293 294 296 298 299 299 299 301 303 302 302 303 302 301 299 303 306 305 311 312 309 315 320 323 328 331 330 326 325 333 338 338 339 341 341 341 346 350 350 350 351 352 351 351 351 350 350 349 349 349 349 349 349 349 349 349 349 348 348 348 347 347 345 344 344 344 342 342 341 340 340 339 338 337 336 336 335 334 334 333 331 328 327 325 325
318 308 308 297 296 296 292 289 291 291 294 296 296 296 298 299 299 300 298 299 299 300 302 302 302 300 299 303 300 302 312 322 319 323 324 326 328 329 328 326 322 330 334 338 338 339 340 341 345 349 350 351 350 351 351 351 351 351 350 350 350 349 349 349 349 349 349 349 349 348 348 348 347 346 344 344 343 343 342 341 340 340 339 338 336 335 335 336 335 334 333 331 328 326 325 325 324
313 309 306 296 293 295 292 293 294 296 295 297 297 301 305 299 300 299 299 300 299 301 301 302 302 298 297 300 299 303 310 319 322 324 324 325 328 329 329 323 321 329 332 335 338 339 340 340 343 348 348 350 350 351 351 351 350 351 350 350 349 349 348 349 349 350 350 349 348 348 348 347 347 345 343 342 342 341 341 341 340 338 337 338 337 334 334 334 333 333 332 329 327 326 324 324 323
308 303 298 297 296 293 290 290 293 293 296 297 297 299 300 301 299 300 300 299 301 301 301 301 300 300 300 300 299 305 309 315 318 321 324 326 329 328 327 323 321 328 332 333 338 339 339 337 341 345 347 349 350 351 351 351 351 351 350 350 349 349 349 349 349 350 349 350 349 348 347 347 346 344 342 342 341 341 341 340 338 337 336 335 336 334 333 333 332 331 330 328 326 324 324 323 323
303 304 302 292 289 290 290 289 290 292 294 296 298 300 301 300 300 300 299 299 300 301 302 302 301 299 301 299 300 307 313 313 314 317 319 325 327 327 326 325 323 331 331 334 337 338 338 339 337 341 343 346 347 349 350 349 350 350 350 350 349 349 349 349 349 350 350 349 349 348 348 347 347 344 343 341 340 341 340 338 336 335 334 333 332 333 332 331 331 330 329 327 325 324 324 322 321
300 300 299 292 290 290 289 290 292 292 295 294 298 300 300 301 300 299 298 297 297 297 299 302 301 302 299 299 299 308 310 311 311 313 316 324 326 325 326 325 326 329 330 335 337 337 337 338 338 338 340 342 343 346 347 348 349 349 349 349 349 349 349 349 348 349 348 348 349 348 348 348 347 345 343 342 339 338 337 336 335 334 333 333 332 332 332 331 330 330 328 326 324 323 323 321 320
303 299 293 292 289 292 290 291 291 295 291 295 297 300 299 299 299 299 298 298 295 297 301 302 304 301 298 299 302 309 309 313 315 315 319 320 324 323 325 326 327 329 332 335 337 336 336 337 338 339 338 337 338 340 342 344 345 347 348 349 348 348 347 348 348 347 347 347 348 347 347 346 343 344 344 341 340 338 337 336 335 334 333 332 332 331 331 330 329 329 327 324 323 323 322 320 319
303 304 297 292 290 292 291 290 291 293 288 296 297 300 300 299 300 299 297 297 295 299 302 304 304 301 297 299 295 303 305 312 315 317 316 317 321 323 324 325 325 328 331 334 335 336 336 336 338 338 338 338 341 337 335 339 342 345 345 345 345 345 345 346 346 345 346 345 345 343 342 339 340 341 341 339 339 338 337 337 336 334 333 332 331 331 331 330 329 327 326 324 323 322 321 319 318
302 303 296 293 289 289 290 293 291 291 293 294 298 299 298 301 299 299 300 298 297 301 304 306 303 300 293 297 293 304 306 312 314 315 320 321 323 323 323 324 326 324 328 331 333 335 336 336 337 337 337 338 339 341 343 340 336 339 341 342 341 343 343 342 342 342 341 341 341 338 336 333 332 334 334 335 336 334 332 331 334 334 333 332 331 331 330 329 328 327 325 324 323 322 320 317 316
305 301 295 293 289 290 292 293 294 290 292 296 299 298 298 300 300 300 300 300 300 303 303 299 304 300 298 299 299 301 306 312 313 318 319 319 319 321 322 324 324 323 325 328 330 333 335 336 336 337 337 338 338 340 341 342 335 334 338 339 339 340 339 339 339 339 334 332 331 330 327 328 327 328 326 329 329 331 329 326 330 334 332 332 331 330 329 328 327 326 325 324 322 320 318 315 313
304 298 291 289 289 291 292 294 293 290 294 295 299 301 298 297 300 302 303 302 300 300 301 300 301 304 301 303 305 306 310 313 316 317 316 316 316 318 318 320 321 322 325 326 328 329 331 335 335 336 336 337 338 340 341 341 339 332 333 333 333 334 335 335 335 332 326 324 324 323 321 327 328 327 327 327 322 324 320 322 328 332 332 332 331 330 329 328 327 326 325 324 322 319 315 313 312
300 295 290 288 290 292 293 296 297 296 296 295 297 297 296 295 297 300 301 301 299 299 298 299 301 302 303 305 305 311 312 314 316 316 313 312 313 313 314 315 316 323 324 324 326 329 329 330 334 335 336 336 338 340 342 342 340 334 337 337 336 334 331 330 332 333 326 327 323 324 326 325 326 326 326 323 321 321 320 321 323 328 332 331 330 330 328 327 326 326 325 324 321 317 312 299 300
297 294 292 289 290 293 297 298 296 295 295 297 297 296 296 297 297 298 298 295 297 297 299 299 298 299 301 302 305 310 312 313 314 313 313 311 313 314 316 316 318 317 321 322 325 327 329 329 331 334 336 337 337 339 341 341 340 337 337 336 335 332 331 330 332 329 328 326 326 326 324 324 324 323 322 321 321 318 320 319 322 326 329 329 328 329 329 326 325 325 325 323 319 314 302 296 294
299 296 290 291 295 296 300 298 298 298 297 297 297 298 297 298 297 300 298 295 295 295 297 298 298 298 299 300 306 308 310 311 312 311 312 312 313 312 313 313 317 318 321 323 325 327 327 328 328 333 335 336 337 337 339 340 339 337 337 336 334 333 332 330 330 328 326 324 324 325 323 323 322 322 321 319 320 319 319 318 320 321 323 324 322 323 326 326 325 325 324 321 316 305 297 296 295
299 296 292 293 296 296 297 298 300 299 299 298 297 296 297 297 298 299 297 295 296 297 298 299 301 301 299 299 301 306 308 308 310 310 310 310 312 312 312 314 315 318 320 323 323 326 327 328 329 329 332 336 336 336 335 336 337 337 337 336 335 332 331 329 329 327 325 323 322 322 322 322 322 321 320 319 319 318 316 316 318 318 318 316 318 315 316 317 316 314 315 309 303 302 299 297 295
300 297 298 298 297 297 300 299 299 298 298 298 296 296 298 298 298 298 297 294 296 297 300 300 301 302 300 300 302 302 305 306 307 309 308 308 309 311 312 311 314 316 316 320 322 324 327 328 329 330 328 333 335 336 335 333 334 335 335 335 334 332 331 329 327 326 325 324 322 322 321 322 321 320 319 318 318 317 316 315 315 314 312 314 315 313 311 311 308 308 306 303 300 298 297 298 297
295 296 297 298 298 298 300 299 298 297 298 297 296 298 299 298 297 297 297 297 300 302 302 302 302 303 304 302 301 302 301 300 302 305 308 307 306 307 309 311 311 313 315 319 322 324 326 327 328 329 329 329 333 334 334 331 332 334 334 334 333 331 330 328 327 326 325 324 322 321 321 320 320 318 318 317 317 316 316 315 314 313 313 312 313 313 311 310 307 305 303 301 298 295 295 296 296
299 295 296 300 299 298 300 300 297 295 297 298 299 299 298 297 296 299 298 301 301 302 302 302 303 303 301 300 301 302 303 302 302 302 306 308 308 308 308 308 309 309 315 318 321 323 323 326 328 329 329 328 329 332 333 332 330 331 332 330 332 329 328 328 327 326 325 324 323 322 321 321 320 317 317 317 316 315 315 315 314 313 312 312 311 312 310 307 305 303 301 298 296 294 296 295 295
294 293 295 298 299 299 297 295 295 296 297 297 297 297 298 297 298 298 299 302 303 303 303 302 302 302 302 301 300 301 301 302 301 302 302 304 306 309 308 308 306 306 312 316 320 322 323 325 327 328 329 329 329 329 330 331 330 328 329 330 331 326 328 328 328 326 325 324 323 322 321 321 319 318 317 317 315 315 314 314 314 313 312 311 310 309 310 308 305 301 299 298 295 295 295 295 295
295 295 296 295 295 296 297 297 298 298 299 298 295 296 297 298 298 297 301 302 303 303 300 301 301 300 300 300 301 300 300 301 301 301 302 303 304 304 305 307 306 305 309 315 317 321 323 325 326 327 328 329 329 328 328 327 329 328 327 329 329 325 327 327 326 325 325 324 323 322 321 321 320 318 316 315 315 313 313 313 314 313 312 311 310 309 307 307 305 299 296 295 295 295 295 295 294
297 294 295 295 295 295 297 296 298 298 297 297 295 295 296 296 298 294 298 300 302 301 299 298 297 299 300 299 300 299 298 298 299 301 300 302 303 304 305 306 306 307 306 310 316 319 321 324 325 326 327 326 327 328 328 327 326 328 326 325 325 326 325 323 324 325 324 323 323 322 320 320 319 317 316 315 313 312 312 313 313 312 311 310 310 309 306 306 304 299 296 294 295 295 294 294 292
296 295 295 296 295 296 297 297 297 297 295 297 296 295 296 294 296 296 300 302 301 299 299 299 298 298 299 299 298 298 298 299 298 300 301 300 301 303 303 304 307 307 305 306 313 317 317 323 324 325 326 326 325 327 325 326 324 325 324 324 322 323 323 321 322 323 322 323 322 322 320 319 317 316 315 315 314 311 310 311 311 311 311 309 309 309 304 303 301 297 295 295 294 294 294 293 292
296 296 292 294 294 294 297 295 297 296 295 296 295 293 292 293 292 298 300 301 300 299 299 299 298 298 298 297 297 297 297 298 297 298 299 300 301 302 303 304 305 305 305 307 307 312 316 320 323 324 325 324 325 325 325 325 324 323 322 323 322 321 322 321 320 320 321 321 321 321 320 318 317 316 314 314 313 311 309 310 310 310 310 308 308 306 303 299 298 295 295 294 293 293 293 292 293
296 294 293 292 290 290 296 296 296 295 294 295 296 286 286 292 296 298 300 297 296 295 295 297 297 297 297 297 296 298 298 299 300 301 301 301 302 302 301 302 303 303 305 306 307 311 315 316 320 321 322 323 323 324 322 322 321 321 321 322 321 320 320 319 318 319 319 319 319 320 319 317 316 315 314 312 312 311 310 310 309 308 308 306 306 302 301 297 295 294 294 294 295 293 292 292 291
291 292 292 287 286 286 294 295 294 294 295 295 297 287 286 290 294 296 298 297 296 296 297 298 300 299 297 296 297 297 300 302 302 303 303 303 303 302 302 301 301 301 302 304 308 308 311 313 318 320 318 319 319 320 320 320 317 319 318 319 320 319 319 319 316 317 316 318 318 318 318 317 315 314 313 312 311 310 309 308 308 307 306 303 303 299 299 295 295 294 293 293 292 291 291 292 291
291 288 283 285 286 286 293 298 296 294 295 294 294 287 288 292 295 297 297 297 297 297 299 299 299 298 297 296 296 297 301 302 302 303 303 302 302 302 302 301 302 302 302 303 306 307 311 312 313 314 314 316 317 317 316 318 318 316 317 316 318 316 317 318 316 316 316 314 315 316 315 315 314 312 311 311 310 309 308 308 307 304 302 301 301 297 296 295 294 294 294 293 291 290 291 291 289
289 288 283 286 285 287 291 295 295 295 293 294 293 289 288 290 294 297 297 296 296 296 298 298 298 296 296 296 299 300 300 300 300 301 301 301 302 302 302 302 302 302 303 303 304 308 311 311 313 313 312 313 315 315 314 314 316 315 316 317 316 315 315 314 314 314 315 315 312 313 313 314 313 310 309 309 309 308 306 307 305 304 301 299 298 296 294 295 294 295 292 292 292 290 290 289 288
284 287 285 286 287 287 287 292 295 294 293 290 291 288 289 292 290 294 296 297 296 296 297 297 297 296 295 299 299 298 298 297 297 298 299 300 301 301 301 302 301 302 302 303 303 306 308 308 309 310 311 312 313 314 314 314 315 315 314 314 314 315 314 314 314 314 314 312 313 312 312 312 312 310 307 307 307 307 306 306 304 303 301 298 297 295 294 292 293 294 292 290 291 290 289 289 289
283 286 286 287 288 288 289 289 292 296 294 293 290 289 289 291 294 295 296 297 296 295 296 295 296 294 298 298 298 297 296 296 296 297 298 299 299 300 300 300 300 301 302 302 303 303 306 307 307 307 309 311 313 313 313 314 315 314 313 314 314 314 314 312 313 312 311 313 311 311 312 312 311 310 307 306 307 304 303 303 304 301 300 297 297 296 293 292 292 292 292 291 289 289 290 289 289
289 289 289 288 287 287 289 292 294 295 292 292 292 292 293 291 292 294 296 298 296 295 294 295 294 297 298 298 297 296 295 295 296 297 297 298 298 299 299 299 300 300 301 301 301 302 302 303 304 304 306 310 312 312 312 312 311 310 311 311 312 310 311 311 311 309 310 310 310 310 311 311 308 309 307 305 306 305 303 301 302 300 299 297 296 295 293 291 292 291 290 291 290 288 289 289 289
291 289 288 288 287 288 290 292 294 294 292 290 292 291 289 290 292 294 297 298 296 294 294 293 294 297 296 295 295 295 294 295 296 296 296 297 297 297 298 298 298 298 299 299 300 300 301 301 301 301 302 305 309 310 309 308 308 307 307 306 305 305 309 308 309 308 309 307 308 309 311 310 308 307 306 305 304 303 303 299 300 299 298 297 297 296 295 293 292 292 290 289 289 288 288 287 289
290 289 287 287 288 288 291 292 294 295 292 287 287 289 290 291 293 296 298 295 295 294 293 295 295 295 295 294 294 294 294 295 295 295 295 296 296 296 297 297 297 296 297 297 298 299 300 300 300 300 301 302 302 304 306 306 305 304 305 304 305 303 305 306 306 307 307 307 305 304 305 305 306 306 305 304 303 303 301 299 298 299 297 297 297 296 294 294 292 291 290 288 288 289 288 288 290
291 289 287 286 286 288 291 293 293 292 292 286 287 288 289 291 294 297 296 294 295 296 295 294 294 293 294 293 293 293 293 293 294 294 294 294 295 295 295 295 296 296 296 296 297 298 298 299 299 299 300 300 300 301 305 304 304 304 304 302 303 303 303 303 303 303 303 304 303 303 303 303 303 303 303 302 303 301 301 299 298 297 297 297 295 294 293 292 291 291 290 290 287 287 287 289 290
289 288 285 286 288 287 284 288 292 293 291 288 288 287 288 291 294 294 294 295 295 296 296 295 294 292 292 292 292 292 292 292 292 292 293 293 294 294 294 295 295 295 295 295 296 296 297 297 298 298 299 299 300 299 300 302 302 301 301 302 302 303 301 301 302 302 302 303 302 301 300 301 302 301 301 301 301 300 299 299 297 296 297 296 297 295 293 292 291 290 290 290 289 288 287 288 290
287 289 287 287 288 288 287 287 290 290 291 290 288 287 286 289 291 291 293 294 295 294 294 294 293 294 293 293 292 292 291 291 291 291 292 292 292 293 293 294 295 294 294 294 294 295 296 296 296 297 298 298 299 299 299 300 301 301 301 301 299 297 297 298 297 297 299 298 300 300 301 299 300 299 299 299 299 299 298 298 297 295 295 295 296 296 294 293 292 292 291 290 289 289 288 286 289
286 288 291 289 290 289 289 289 288 284 283 286 287 278 278 286 288 290 290 291 291 292 291 291 291 292 292 291 291 291 291 291 291 290 291 291 291 292 292 293 293 294 294 294 294 295 295 295 296 296 297 297 298 298 299 299 298 298 298 297 296 295 295 295 297 295 296 299 300 297 298 298 299 298 297 298 297 298 297 297 296 295 293 293 294 295 295 293 291 290 290 291 290 289 289 287 287
286 287 292 291 289 289 288 286 286 279 279 285 289 281 276 284 288 291 290 289 289 290 290 290 290 290 290 290 290 290 290 290 290 290 290 289 290 290 291 291 292 293 293 294 295 294 295 295 295 295 295 296 297 297 297 298 297 297 297 296 296 295 294 296 295 296 295 296 297 298 298 297 298 299 297 296 296 296 296 296 295 294 293 292 292 292 292 292 292 291 291 290 290 291 288 287 287
285 288 290 290 289 289 288 288 286 283 283 285 287 286 279 279 285 292 289 289 288 288 289 289 289 290 290 289 289 289 289 289 289 288 289 288 288 288 289 290 290 291 292 293 294 294 294 294 294 295 295 295 295 296 296 296 296 296 295 295 295 295 295 295 296 296 297 296 295 297 295 296 296 297 296 296 295 295 295 295 294 294 294 292 291 292 292 291 292 291 291 291 291 290 289 288 287
286 289 290 289 290 288 287 286 283 282 282 279 281 285 280 278 283 289 290 287 286 286 287 288 288 289 289 289 289 289 289 288 288 288 287 288 287 288 288 288 289 290 291 291 292 293 293 293 294 294 294 295 295 295 295 295 295 294 294 294 293 294 294 295 295 296 296 295 295 295 295 294 295 295 295 295 294 295 294 294 293 293 293 293 291 292 291 291 290 290 290 290 290 290 289 288 287
291 290 291 290 290 288 288 283 283 281 281 275 280 284 279 278 284 286 287 286 285 286 287 287 287 287 287 287 287 288 288 288 288 288 287 287 288 287 288 288 289 289 290 291 290 291 292 292 292 293 293 294 294 294 294 294 294 294 293 293 292 292 293 293 294 293 293 294 293 294 294 294 293 293 295 293 294 294 293 293 293 292 292 293 292 292 290 289 289 289 289 290 290 290 289 289 289
292 289 287 284 285 284 283 282 282 279 274 277 282 285 284 276 282 284 285 286 287 287 286 287 287 287 287 287 287 287 287 287 287 287 287 287 287 287 287 287 288 288 289 289 289 290 290 290 290 290 291 292 293 293 293 293 293 293 292 292 292 291 292 292 291 292 292 292 292 292 293 293 293 293 292 293 293 293 292 292 292 292 292 291 291 291 291 291 290 290 289 288 288 289 289 289 289
289 284 282 283 282 280 281 277 280 274 272 277 282 283 285 276 278 284 286 288 290 289 286 286 286 286 286 286 286 287 287 287 286 287 287 287 286 286 287 287 287 287 288 289 289 289 289 289 289 289 290 290 291 291 291 292 292 292 292 291 291 291 291 291 290 290 291 291 291 291 292 292 292 293 292 292 292 292 292 291 291 291 291 291 291 292 291 291 291 290 289 288 288 288 289 289 288
285 283 281 277 275 277 274 275 274 272 275 279 283 283 281 282 283 286 287 287 288 289 288 287 286 286 286 286 287 287 287 286 286 286 286 287 286 285 286 286 287 287 287 288 288 288 289 288 288 288 288 289 289 290 289 290 290 290 290 290 291 291 290 290 290 290 290 290 290 290 290 290 290 291 291 291 292 292 292 292 292 291 291 291 291 290 291 290 290 290 289 289 288 288 288 288 288
284 283 279 276 274 274 269 271 274 274 278 281 283 286 282 284 286 287 286 286 287 288 287 287 287 286 286 287 287 286 286 285 285 285 285 285 285 285 285 286 286 286 286 287 287 287 287 286 286 286 286 288 288 289 288 288 288 289 289 289 289 290 289 289 289 289 289 289 289 289 289 289 289 289 290 290 291 291 291 291 292 292 290 289 290 290 289 289 289 290 290 289 288 289 288 287 288
284 284 284 280 278 274 272 274 273 275 277 279 281 281 277 278 283 285 286 286 286 286 286 286 286 285 284 284 284 284 284 283 283 284 284 284 284 284 284 285 285 285 285 285 286 286 286 286 285 285 285 286 287 287 288 287 288 288 288 288 288 288 288 288 288 289 289 288 289 288 288 288 288 289 289 290 290 290 290 290 290 291 291 290 289 289 291 289 288 289 289 289 288 288 287 287 286
284 284 282 280 281 282 277 277 276 276 276 276 277 280 279 282 285 285 286 286 286 286 285 285 285 285 284 284 284 284 284 284 284 283 284 283 283 283 284 284 284 284 284 285 285 285 285 285 285 285 285 285 286 286 286 287 287 287 287 286 287 287 287 287 288 288 287 288 288 288 287 287 287 288 288 289 289 289 289 289 289 289 290 290 290 289 289 289 288 288 288 287 287 288 287 286 286
283 285 281 282 283 285 278 276 278 276 274 276 278 281 283 284 285 284 285 284 284 284 284 284 284 283 283 283 283 283 283 283 283 283 283 283 283 284 285 284 284 284 285 285 285 285 284 285 285 286 286 286 286 286 286 287 287 286 286 286 286 286 286 286 287 287 287 287 287 287 287 286 287 287 288 288 288 288 288 288 288 288 289 289 288 288 287 287 287 287 287 287 287 287 286 286 286
284 280 281 285 287 284 280 273 271 272 272 275 276 276 278 280 275 282 282 282 282 282 282 282 282 282 282 282 282 283 283 284 284 284 283 283 283 284 285 286 286 286 287 287 287 286 285 286 285 285 286 286 286 287 287 287 287 286 286 286 287 286 285 285 286 287 287 286 287 287 287 287 286 286 287 287 287 286 286 287 286 286 287 287 287 288 287 287 286 287 286 286 287 286 286 286 286
286 282 286 284 277 276 279 273 270 269 270 270 274 279 279 280 281 279 280 280 281 281 281 281 281 281 281 281 282 283 284 283 283 283 284 285 285 284 285 286 286 286 286 287 288 288 286 286 287 287 286 285 285 286 285 286 286 287 287 286 286 287 287 286 286 286 286 286 286 286 286 287 286 286 286 286 285 284 285 285 285 285 286 287 287 287 287 287 286 286 287 286 286 285 285 285 286
287 288 285 285 282 278 277 280 274 275 270 271 269 274 276 282 281 282 283 282 282 282 281 281 282 282 282 282 283 283 284 286 286 286 286 287 286 286 286 286 286 287 287 286 286 285 286 286 285 286 287 286 286 287 286 285 285 285 285 284 284 284 284 285 285 285 286 285 286 286 285 285 285 285 284 285 284 284 284 284 284 285 285 285 286 286 287 286 286 286 286 286 286 285 285 285 286
283 284 281 284 283 284 283 281 278 276 275 277 277 275 279 282 285 284 285 284 283 283 282 282 283 284 284 285 285 286 286 287 287 287 287 287 286 286 286 286 287 286 286 287 287 287 286 285 286 285 284 283 284 285 286 285 285 284 284 283 284 283 283 283 283 284 284 284 284 285 284 284 283 283 283 284 284 284 284 284 284 284 284 284 284 285 285 286 286 286 286 286 286 286 285 285 285
283 284 281 284 281 277 276 276 283 278 280 277 277 276 282 285 287 285 285 284 284 284 284 284 284 285 286 286 287 287 287 287 288 287 286 286 286 286 286 286 285 284 284 284 285 285 284 285 284 284 284 283 283 282 281 282 282 284 282 282 282 282 282 282 282 281 281 282 283 283 284 284 284 284 283 283 283 284 284 284 284 284 284 284 284 284 284 285 285 285 286 287 287 286 286 286 286
Wind_Speed
7 7 6 6 2 1 3 3 2 3 2 1 3 1 1 1 0 3 2 1 2 1 1 1 0 3 0 1 2 2 3 1 5 2 2 2 1 4 6 4 8 10 11 9 10 11 11 15 18 17 17 17 17 16 15 15 15 15 14 13 13 13 14 14 13 12 12 12 11 11 10 10 10 10 9 9 9 8 8 7 7 8 9 9 10 9 9 10 10 10 9 9 9 9 9 8 8
5 5 7 5 3 3 1 1 2 2 4 3 2 1 0 1 3 1 3 3 2 1 2 1 1 1 2 2 2 0 3 8 3 1 1 1 2 2 4 5 9 11 9 9 9 10 10 12 17 17 18 18 17 18 17 16 15 15 15 14 14 14 14 14 13 12 12 12 11 10 10 10 10 10 10 10 10 9 8 8 8 8 9 9 10 10 9 9 9 9 7 7 8 8 8 8 8
4 6 6 7 2 1 1 2 1 1 3 3 2 1 1 5 2 1 3 3 4 3 3 1 0 1 1 4 2 2 1 1 3 1 1 0 4 5 5 4 6 9 10 8 9 9 8 11 16 17 19 18 18 18 18 17 16 15 14 14 14 14 14 13 12 12 11 11 10 10 10 10 11 11 11 11 11 10 9 8 8 8 9 9 9 9 9 9 8 7 6 6 7 7 8 8 7
3 1 1 3 2 3 2 2 3 1 1 2 1 4 2 2 1 4 3 4 4 3 0 0 0 1 1 1 2 1 2 0 1 4 1 3 6 5 6 5 6 8 7 7 8 8 8 11 16 17 18 18 18 18 17 18 17 16 15 14 14 14 13 13 13 12 11 11 10 10 10 11 12 12 12 11 11 11 11 9 9 8 9 8 7 7 7 7 7 6 6 6 6 7 7 7 7
3 3 2 1 2 3 1 0 1 2 1 1 3 1 1 2 1 1 1 2 3 4 1 1 1 1 1 1 0 1 1 2 1 2 2 2 1 6 6 5 6 9 8 8 9 8 7 13 15 16 17 17 19 18 17 16 17 16 15 14 15 14 13 13 12 12 12 11 11 11 11 12 13 13 12 12 12 11 10 10 9 7 5 6 7 6 6 6 6 5 4 5 6 6 7 7 7
4 4 0 2 1 2 3 2 2 1 8 2 1 1 1 1 2 1 3 2 1 1 2 1 1 0 1 1 3 1 2 0 3 1 4 4 5 6 6 5 5 8 9 9 9 7 7 12 14 15 16 18 19 17 17 16 18 16 15 15 15 15 13 13 12 12 12 12 12 12 13 13 13 12 13 12 12 11 10 8 7 5 5 4 3 6 5 3 4 4 4 4 5 6 6 6 6
3 4 1 3 1 2 2 1 4 3 8 5 2 1 1 1 2 3 4 1 1 2 1 1 1 1 1 2 1 1 1 1 2 3 5 5 6 6 5 5 5 8 10 9 9 8 9 12 13 15 15 15 18 16 16 16 18 16 15 16 15 14 14 13 13 12 12 12 12 12 13 14 13 13 13 13 12 11 9 7 6 4 4 5 4 1 2 4 3 4 4 5 5 5 5 5 5
0 2 1 3 1 2 1 1 3 4 4 2 4 3 0 2 2 2 2 1 1 0 0 2 2 3 5 3 1 2 5 3 1 2 5 7 7 6 5 5 5 6 9 8 8 7 12 14 13 14 14 15 15 15 16 16 17 15 15 16 15 14 14 13 13 12 12 11 12 13 14 14 13 12 13 12 12 11 10 9 7 5 3 4 4 3 4 5 6 5 6 5 5 5 5 5 5
2 1 1 5 1 1 2 4 4 3 2 0 1 3 4 4 3 2 1 1 3 0 1 1 2 2 2 6 2 3 2 0 3 4 7 7 8 8 6 5 5 6 6 8 7 8 10 14 13 14 14 14 14 15 16 17 17 15 15 15 15 14 14 14 13 11 11 12 13 13 13 14 13 13 14 13 11 10 10 10 9 6 4 4 2 3 4 5 5 5 6 5 5 5 4 5 5
1 3 1 1 2 2 1 6 2 3 1 2 1 1 3 0 1 1 0 3 1 1 2 3 2 1 2 4 4 1 1 3 3 2 4 6 8 6 6 7 6 7 7 5 7 8 9 15 15 14 14 14 14 15 17 16 15 15 15 15 15 14 13 13 12 11 11 11 11 13 13 14 14 14 14 13 10 11 11 10 9 7 6 5 7 6 4 5 4 4 6 4 5 5 5 4 5
2 2 2 2 3 1 1 6 3 6 3 3 3 2 3 2 2 1 1 2 2 1 0 1 1 1 1 3 3 1 0 4 4 4 4 4 5 6 6 5 5 7 7 6 7 7 8 11 17 15 14 14 13 14 14 14 14 14 14 14 13 13 12 12 12 11 11 11 11 14 15 15 15 14 14 12 11 12 11 10 8 7 5 3 1 4 4 5 5 4 5 5 5 5 5 5 5
2 1 2 0 1 1 3 3 8 7 6 2 1 2 1 3 1 1 2 4 4 3 1 2 1 1 1 1 2 1 3 1 3 2 3 4 5 5 5 4 4 6 7 7 7 7 8 9 10 14 15 14 13 13 13 13 13 13 13 13 13 12 12 12 11 11 11 11 12 12 14 13 12 15 14 13 12 12 11 10 9 8 7 5 4 4 5 5 5 5 5 6 5 5 4 4 4
1 1 3 2 2 0 3 3 5 2 2 0 1 1 0 2 1 0 0 0 2 3 0 2 0 2 2 1 2 1 2 0 1 4 3 4 5 4 4 3 4 6 6 8 8 8 9 8 9 9 11 14 13 12 13 13 13 13 12 13 12 12 12 11 11 11 11 11 12 12 12 11 12 10 12 12 11 11 11 10 9 9 8 7 6 5 5 6 5 6 5 5 5 4 4 4 5
1 0 1 2 0 1 1 3 2 1 2 2 2 1 1 2 1 2 1 3 3 0 2 3 0 2 4 1 4 2 4 3 4 4 3 3 3 3 4 4 4 5 7 8 8 8 8 8 8 8 9 9 8 10 11 13 13 14 13 13 12 11 11 11 10 11 11 11 12 11 10 10 10 11 10 12 11 10 10 9 9 10 9 8 7 7 6 7 6 6 6 6 6 5 5 4 4
1 0 1 1 3 2 3 0 2 2 1 3 3 1 1 3 2 1 1 0 6 3 1 0 3 3 4 2 4 3 7 7 6 3 3 3 3 3 1 3 4 3 5 7 7 8 8 8 9 8 8 7 8 8 7 10 14 13 14 13 12 11 11 11 10 10 11 10 9 9 9 10 10 11 11 11 11 10 9 9 9 10 10 9 9 8 8 8 7 7 7 7 7 6 5 4 4
1 2 2 1 2 1 6 1 0 3 1 2 2 2 0 2 1 1 3 4 2 2 0 3 0 3 3 2 7 7 6 8 5 4 4 4 2 2 3 1 3 2 3 5 7 7 8 8 8 8 8 8 7 7 8 8 11 13 13 14 13 11 11 10 10 10 10 9 9 9 9 8 9 9 12 9 11 10 9 7 9 8 10 10 9 9 9 8 9 8 8 8 7 6 5 4 4
2 4 1 1 5 1 3 0 2 2 3 1 2 0 1 1 2 0 0 1 2 6 2 3 4 1 6 7 10 3 4 5 6 5 4 3 4 2 1 1 2 3 2 4 6 7 7 9 9 8 8 9 8 8 8 9 9 12 11 13 13 12 12 11 11 11 10 9 9 9 9 6 5 6 7 6 9 6 9 9 9 8 9 8 9 9 9 9 9 8 8 9 8 7 6 5 4
3 1 3 1 5 1 4 1 1 2 0 3 3 1 2 2 3 2 2 3 1 5 7 4 4 6 7 9 2 3 5 8 6 8 5 4 4 4 5 4 4 8 6 6 5 6 7 8 10 9 8 10 9 8 7 7 7 10 8 8 8 10 10 11 10 8 7 6 9 7 6 6 5 5 6 7 5 6 7 10 9 8 8 8 8 9 10 10 10 9 9 10 10 8 6 2 2
2 1 2 6 3 6 1 2 5 4 6 4 2 2 3 2 1 2 1 4 4 6 9 4 5 6 9 10 0 5 7 5 7 7 9 8 7 8 8 6 6 4 6 6 6 7 7 6 7 9 10 10 10 10 8 8 8 7 8 8 7 9 8 9 7 8 6 6 6 7 6 6 6 6 6 7 6 8 8 10 10 9 8 8 8 9 9 10 10 10 10 10 10 9 4 3 2
3 3 4 6 5 4 8 5 7 3 2 4 3 2 4 5 3 0 2 7 4 7 9 8 8 9 6 7 1 4 6 6 5 6 8 9 8 9 7 8 8 9 9 9 9 6 7 8 8 10 11 11 11 9 8 8 8 7 7 7 7 7 7 7 6 6 6 6 7 6 6 6 6 6 7 11 9 6 6 9 10 10 8 8 10 7 8 8 11 10 11 10 7 4 3 2 2
2 3 4 4 4 2 5 5 7 9 5 4 4 3 6 5 3 1 5 6 8 8 6 9 16 15 6 8 3 4 5 6 7 7 7 8 8 7 9 11 11 11 10 8 6 8 8 10 8 8 9 10 11 9 9 8 8 8 8 7 7 7 6 7 6 6 6 7 7 6 6 6 6 6 6 6 6 6 5 5 6 5 5 5 8 5 5 5 5 4 5 6 5 5 4 3 2
3 8 7 7 3 5 8 6 8 4 4 5 4 6 7 1 4 3 2 6 11 6 7 9 12 14 8 7 8 3 6 8 9 8 10 11 11 11 9 7 6 5 4 6 10 9 10 10 10 8 7 9 11 10 10 9 9 9 9 8 8 7 7 7 7 7 7 7 7 7 7 7 7 7 6 6 6 7 6 6 6 6 5 5 5 6 6 5 4 5 5 5 4 4 4 4 4
4 3 4 6 6 5 3 4 5 5 6 5 5 3 2 2 6 5 6 12 13 10 8 10 12 12 11 5 5 7 6 7 9 11 12 11 10 10 10 9 9 8 7 9 9 9 10 9 10 9 8 8 11 9 8 7 8 9 9 8 9 8 7 7 7 7 7 7 7 7 8 7 7 6 7 7 7 6 7 6 6 6 6 6 6 7 6 6 6 6 6 5 4 4 3 4 4
6 8 2 7 6 7 6 7 7 6 5 5 5 3 4 2 9 1 5 15 12 12 11 11 11 11 7 6 6 8 9 9 10 10 12 13 14 14 12 11 10 6 7 9 9 10 10 13 11 10 10 8 8 9 10 9 8 9 9 9 9 9 9 8 8 7 7 7 7 8 8 7 7 6 7 7 7 6 7 6 6 6 6 6 5 6 7 6 6 6 5 4 4 3 3 4 4
3 4 3 3 2 4 5 5 5 6 8 6 6 7 11 5 6 4 13 16 17 14 10 10 11 10 11 9 10 9 9 8 8 9 6 7 8 11 7 7 6 5 7 8 8 8 10 11 11 13 11 12 9 9 10 9 8 8 8 9 9 9 9 8 8 7 7 7 7 8 7 7 6 7 7 7 6 7 6 7 6 6 6 6 6 6 7 7 6 6 6 5 5 4 5 4 4
0 2 1 3 3 4 6 7 8 9 8 6 6 12 11 7 4 7 17 18 17 13 5 8 9 9 10 10 11 9 8 9 8 7 9 8 6 6 8 9 7 7 12 10 8 10 9 9 11 13 12 12 11 8 8 8 8 8 8 9 9 8 8 8 7 7 7 7 7 7 8 7 7 7 7 6 7 6 6 6 6 6 7 6 6 7 6 7 7 6 5 5 5 5 5 5 4
1 4 4 3 5 6 4 5 11 11 6 8 6 11 12 3 4 8 5 12 13 11 9 5 5 8 10 8 8 7 6 7 8 7 5 4 5 7 10 6 7 11 8 7 8 8 8 9 10 10 10 8 8 9 8 7 6 8 7 6 7 8 7 7 7 7 7 7 8 8 7 7 7 6 7 7 6 6 6 7 6 6 6 7 7 6 6 6 6 7 7 6 6 6 6 4 5
2 2 6 8 8 9 10 10 16 8 6 7 9 12 12 2 3 12 14 15 11 10 13 11 6 7 8 8 7 5 4 6 5 3 7 7 7 8 8 8 10 7 6 8 8 6 5 9 10 9 9 8 8 7 6 6 6 6 5 5 5 6 6 6 7 7 7 7 7 8 7 7 7 6 7 7 7 6 6 6 6 6 7 6 7 6 6 5 6 5 5 5 5 5 6 5 4
3 2 6 7 6 9 12 9 12 3 6 3 7 2 6 2 5 13 13 12 10 11 12 13 9 7 6 5 5 5 5 7 7 7 8 8 9 8 7 8 6 4 2 1 1 3 6 7 7 8 7 6 7 7 7 6 5 5 5 5 5 5 6 6 6 7 7 7 7 8 8 7 7 7 7 8 7 7 6 6 6 7 6 6 6 6 6 5 5 5 4 4 5 4 4 4 3
4 2 1 9 4 6 17 4 9 7 4 4 6 3 7 9 13 12 13 7 7 6 8 9 7 5 2 3 4 6 9 12 14 10 10 11 11 10 11 11 10 6 4 3 2 4 5 3 4 4 5 6 7 5 4 5 4 4 5 5 5 6 5 6 5 6 6 6 6 7 7 7 7 7 8 6 7 7 6 7 7 6 6 5 5 6 7 6 6 5 6 6 5 6 6 6 6
4 3 2 4 5 6 11 2 4 2 2 5 7 5 7 8 8 9 10 6 4 7 10 12 12 7 5 5 5 4 12 10 12 13 13 14 12 11 12 13 12 11 10 7 1 1 1 3 4 4 5 5 5 4 5 4 4 4 5 5 5 5 5 5 4 4 5 5 6 6 6 7 6 7 7 8 7 7 7 6 6 6 5 5 6 6 7 6 7 7 6 7 4 6 6 6 6
2 2 4 2 6 7 11 11 5 5 0 4 3 3 8 8 10 9 8 7 7 9 13 14 10 6 5 5 6 11 9 11 14 15 14 14 14 12 14 14 13 13 12 9 7 4 5 4 4 4 4 5 5 4 4 4 4 4 4 5 5 4 5 5 5 4 5 5 5 5 4 5 5 5 5 6 7 6 7 7 6 5 5 5 5 5 5 7 6 6 5 7 6 5 6 6 4
2 5 3 4 2 6 6 6 1 4 3 1 4 7 2 6 9 11 11 5 7 9 14 14 10 6 7 8 10 8 10 13 14 15 15 12 12 12 12 14 13 13 13 13 11 8 8 7 7 6 4 4 4 4 4 4 4 4 4 4 4 4 5 4 4 4 5 5 5 5 4 5 4 5 5 5 6 6 6 6 5 5 5 6 6 5 5 5 6 6 4 5 6 6 7 6 4
4 2 6 5 5 3 4 7 4 1 3 2 3 4 6 6 5 8 11 8 8 11 13 9 9 6 8 10 11 11 12 12 14 13 14 12 11 13 12 12 13 13 13 14 12 10 8 8 8 7 6 5 5 5 5 5 5 5 5 6 5 6 4 4 5 5 5 5 5 5 5 5 5 5 4 4 5 5 5 6 5 6 6 6 6 5 6 4 4 6 7 5 6 6 7 7 7
4 3 4 6 3 4 6 3 3 2 1 4 4 6 8 11 11 12 14 14 10 10 9 6 7 5 8 11 11 12 12 14 12 11 12 12 13 13 12 13 13 13 11 13 14 12 10 9 9 10 9 8 7 6 6 7 7 6 6 6 6 5 6 5 5 6 5 5 5 4 5 5 5 5 5 5 6 6 6 6 6 5 6 6 7 6 5 5 5 5 8 7 4 5 6 6 6
7 7 8 5 6 5 6 7 5 2 5 7 8 12 10 5 7 10 11 11 5 5 5 7 4 9 10 11 11 11 11 12 9 10 11 12 11 12 12 12 12 11 12 12 14 14 13 12 10 11 9 7 6 7 7 7 7 7 6 5 7 6 5 6 6 5 3 5 4 4 4 5 4 5 5 5 6 6 5 5 5 5 6 6 7 7 6 6 8 7 6 7 6 3 1 5 5
7 5 5 8 7 5 4 5 6 4 5 5 10 6 4 6 8 12 16 11 8 6 7 4 6 10 10 10 10 11 12 10 6 9 11 12 13 13 12 12 12 13 14 14 15 14 13 12 13 12 10 10 8 7 7 6 6 4 5 5 3 3 4 4 4 4 4 4 4 5 5 5 5 5 4 4 5 5 5 5 5 5 6 7 7 8 8 8 7 7 6 4 6 5 4 4 5
7 6 5 7 2 8 3 4 4 5 1 3 3 6 8 9 11 17 15 7 11 7 3 10 12 10 10 10 10 10 7 5 8 12 13 13 13 14 13 12 13 15 14 14 14 12 12 13 12 11 10 11 10 8 7 7 5 2 4 2 3 4 4 3 2 2 4 4 3 3 3 3 4 4 4 4 4 5 5 5 5 7 6 7 7 6 6 6 6 5 5 4 4 8 7 7 7
5 5 3 4 6 5 4 6 4 3 2 5 4 5 7 9 11 19 12 6 8 9 10 6 12 10 9 9 9 8 9 10 11 11 12 12 13 14 12 11 11 10 11 12 11 14 13 12 11 10 10 10 9 9 8 7 6 7 6 5 4 4 4 4 4 4 4 5 3 2 2 3 3 3 3 4 4 4 4 5 6 5 6 6 5 5 5 6 7 7 7 8 6 3 4 4 8
3 6 6 8 3 3 6 3 7 5 0 4 4 5 6 6 13 7 8 12 8 11 14 13 11 12 12 10 7 9 9 10 13 12 12 12 11 11 11 11 10 11 12 12 12 12 10 11 11 11 10 9 9 9 7 4 4 4 6 6 6 6 3 4 5 6 5 4 4 2 2 1 1 2 1 2 3 3 4 4 3 3 5 4 6 7 6 7 6 5 6 7 6 6 4 6 7
2 3 3 4 4 3 2 3 3 4 4 1 4 6 6 5 11 3 5 6 11 8 11 12 10 10 9 8 11 10 10 9 10 11 11 11 12 12 10 9 9 11 11 11 10 9 8 10 10 10 10 10 10 11 10 8 9 9 8 8 7 6 5 7 6 4 5 3 2 1 0 1 1 1 1 2 2 3 2 2 3 3 3 4 4 5 6 8 8 8 9 7 7 8 8 4 6
2 3 5 4 2 0 1 2 5 7 5 3 5 6 3 6 6 4 5 5 10 5 10 10 9 7 8 11 10 8 9 9 10 11 10 8 8 8 9 10 11 10 11 10 9 10 10 10 11 11 10 11 11 11 10 9 9 8 8 8 8 7 7 7 7 5 2 1 1 2 2 1 0 0 1 1 2 1 2 2 2 2 3 3 4 5 5 4 5 5 6 8 8 8 7 6 6
1 6 4 3 3 2 0 3 5 2 1 2 3 1 8 3 4 8 5 6 6 6 8 7 7 7 7 8 7 8 8 9 9 10 8 9 8 9 10 10 9 10 9 6 9 10 11 10 10 10 10 10 10 11 12 9 10 8 8 7 6 7 6 5 4 6 5 5 3 1 2 2 1 1 1 1 1 2 2 2 2 3 3 3 3 4 5 5 6 6 6 6 8 7 5 7 8
5 2 4 2 1 2 2 1 1 5 2 4 2 5 6 1 6 13 6 7 4 6 6 5 6 7 7 7 7 7 7 7 8 9 8 7 8 8 10 9 9 9 7 8 10 10 12 12 11 12 11 12 11 10 12 10 10 9 10 9 8 8 7 6 7 6 7 7 7 5 2 2 3 2 2 1 1 1 2 2 2 2 2 3 3 5 6 6 5 4 5 6 6 6 7 8 7
3 1 3 1 0 1 1 1 3 3 1 7 5 2 1 4 8 1 10 6 1 4 4 4 4 5 6 7 8 7 7 6 7 8 7 7 7 8 7 9 8 8 9 10 9 10 10 11 11 11 13 12 11 12 11 11 10 9 9 8 9 8 8 7 7 8 9 8 9 9 8 6 4 3 2 3 2 2 2 3 2 2 3 4 3 4 4 4 5 5 5 5 6 7 7 7 7
2 2 0 0 0 1 1 1 1 2 0 6 6 3 4 6 6 3 1 3 5 4 4 4 4 4 5 7 7 7 6 6 5 7 6 6 5 6 5 6 9 9 8 8 9 9 10 10 12 14 14 11 11 12 12 12 11 10 10 10 10 9 8 9 8 9 9 8 9 8 8 8 8 7 5 3 2 2 2 2 2 3 4 4 3 4 4 4 4 4 5 6 6 7 7 7 9
3 3 1 4 3 2 1 2 2 2 1 6 8 6 6 4 4 2 7 7 6 7 3 4 4 5 5 5 6 5 5 4 4 5 6 6 5 5 5 9 8 8 7 8 9 9 9 11 11 14 11 10 11 12 13 13 12 11 11 11 11 11 9 8 9 10 9 10 9 9 9 8 8 8 7 7 6 5 3 1 3 4 3 3 3 3 4 5 5 5 5 5 5 6 7 7 8
2 2 2 5 5 4 2 2 2 1 5 5 2 4 9 6 5 3 4 3 13 16 14 10 7 5 4 4 4 5 4 4 3 5 7 6 5 5 5 9 9 8 10 11 10 9 11 10 10 12 12 11 10 11 12 12 11 12 11 11 11 10 10 9 10 9 9 9 8 9 8 9 9 8 8 8 8 9 7 5 2 2 3 3 4 4 4 4 5 4 4 5 5 5 6 7 7
5 4 4 4 3 3 2 1 1 4 7 3 1 5 1 8 7 3 3 7 3 4 6 10 9 7 6 5 6 5 3 3 4 5 5 6 6 6 8 8 9 11 10 10 11 10 10 11 11 12 12 10 10 10 11 11 11 11 10 10 10 9 10 10 9 9 8 8 8 9 9 9 8 9 9 9 10 10 8 8 7 4 4 3 4 3 4 4 4 4 4 5 5 5 6 7 7
6 5 5 4 0 0 3 5 2 3 4 5 1 2 2 3 4 5 5 6 5 10 10 8 8 7 5 5 4 5 4 4 3 4 5 7 7 6 7 8 9 9 10 10 10 9 8 9 10 12 10 9 8 10 10 10 10 9 8 8 8 7 8 8 8 8 7 7 6 7 7 7 7 8 8 9 8 9 9 8 8 7 4 4 4 4 4 4 4 5 5 5 6 7 5 6 8
8 2 8 6 5 2 4 2 4 5 6 3 2 3 5 4 2 3 6 6 9 10 10 8 7 5 4 3 4 4 4 4 3 5 6 6 6 6 6 7 7 8 9 9 8 9 9 10 10 10 11 10 10 9 9 10 9 8 7 6 6 5 6 6 6 5 5 7 7 7 7 7 7 7 7 7 9 9 9 9 8 9 8 6 5 4 5 4 4 4 4 5 6 5 6 6 6
1 1 4 3 5 4 5 2 1 2 3 5 2 5 3 2 2 3 3 7 9 8 9 7 6 5 4 4 4 3 3 3 3 4 6 5 4 4 5 6 6 6 6 7 8 8 8 7 8 8 8 8 9 9 8 8 7 6 7 8 8 7 5 4 4 4 5 5 5 6 5 5 6 6 7 8 9 7 8 8 9 9 8 8 7 6 6 5 5 5 6 5 6 4 5 6 7
2 3 3 4 2 3 1 4 0 2 2 9 1 5 3 2 2 3 3 7 6 5 5 6 5 4 4 3 3 3 2 3 3 4 4 4 4 4 4 4 5 6 6 7 6 6 6 7 7 9 9 9 10 9 9 7 8 8 7 6 6 7 9 9 7 7 7 5 5 5 5 5 4 5 5 5 7 8 7 7 7 8 8 8 8 7 7 6 6 6 6 6 7 6 5 7 7
6 1 6 1 2 3 3 4 3 1 5 6 2 5 4 3 6 2 2 6 4 4 4 4 4 3 4 3 3 3 3 3 3 3 4 3 3 4 4 5 5 6 6 5 5 5 5 5 6 7 8 10 9 9 9 9 9 9 9 9 8 7 6 6 6 6 6 6 7 6 6 6 6 6 5 5 5 6 6 7 6 7 7 7 7 7 6 7 6 6 6 6 7 5 6 6 6
3 3 1 1 3 2 2 4 3 2 4 4 4 5 5 8 6 4 5 7 7 5 4 5 5 4 5 4 3 3 3 4 4 4 3 3 3 3 4 4 4 4 4 4 5 4 4 4 5 5 6 5 5 5 5 6 6 5 5 7 7 7 7 7 8 7 7 8 8 7 6 5 5 6 6 7 7 6 6 6 4 5 6 7 7 8 7 7 5 6 6 7 6 5 6 7 7
2 1 1 0 2 4 2 6 4 3 5 2 5 4 7 3 5 12 12 10 11 9 7 6 7 7 6 6 4 5 4 4 5 4 4 4 3 3 3 3 3 3 3 3 3 3 3 3 4 4 4 3 4 5 4 5 5 5 6 5 6 4 4 4 6 6 7 7 8 9 9 9 8 7 5 5 5 6 7 7 6 5 5 5 6 7 7 7 7 6 6 7 7 5 6 7 8
0 1 2 0 1 2 1 2 3 4 3 5 7 10 7 3 1 6 11 13 12 11 9 6 7 7 6 6 7 5 5 4 4 4 3 3 2 2 2 1 1 1 2 2 2 1 1 1 1 1 1 2 2 3 2 3 3 4 4 4 5 4 3 3 3 4 4 5 5 5 5 5 6 8 7 9 9 9 7 7 7 7 5 6 5 7 6 6 6 7 7 6 7 6 7 8 7
4 7 7 7 4 3 4 9 1 2 5 5 7 12 7 0 2 2 7 7 9 7 11 12 8 9 8 6 6 5 5 4 4 3 3 2 2 2 2 1 1 1 1 1 1 0 1 0 0 0 0 1 1 2 1 2 3 3 3 4 4 4 3 3 2 3 3 4 4 4 5 5 5 7 5 6 7 7 8 9 9 9 8 6 6 6 6 6 7 7 7 6 7 8 8 9 7
Wind_Direction
320 317 307 295 286 303 43 4 60 308 62 261 285 37 239 17 144 50 47 359 39 264 197 306 2 14 154 200 185 197 211 155 213 118 220 233 322 184 179 171 136 140 148 157 162 166 170 169 165 167 166 167 168 168 167 167 163 163 161 160 157 161 161 160 159 159 158 159 158 154 150 146 144 140 138 133 128 125 120 115 116 116 115 117 115 107 108 93 87 78 70 71 77 78 75 73 69
304 323 314 313 291 51 321 99 103 358 33 14 281 89 244 323 51 128 115 123 194 204 236 175 289 247 310 240 186 288 298 205 173 189 209 267 13 123 205 156 144 147 149 156 161 166 170 170 166 165 167 167 169 169 168 169 167 165 163 162 161 165 164 163 164 164 166 166 162 158 154 151 146 142 138 134 127 121 118 118 116 124 127 120 118 116 98 86 80 82 70 65 67 71 69 65 61
318 351 337 359 30 83 272 48 44 88 72 36 287 232 342 47 95 106 152 156 187 195 192 302 205 33 313 35 21 132 259 296 87 50 102 320 106 236 215 162 147 142 147 155 160 167 170 172 168 166 168 168 169 170 170 169 168 167 166 165 168 168 168 168 169 170 174 169 166 163 157 152 149 141 140 135 124 122 120 118 120 120 119 114 102 94 88 85 79 71 72 60 64 66 65 61 55
319 268 45 37 343 23 54 25 100 131 34 207 325 318 44 129 79 152 177 190 181 127 65 142 81 239 132 346 212 166 247 15 197 148 123 226 202 195 186 168 148 134 141 156 164 168 171 174 169 168 168 169 171 170 170 170 169 167 168 170 171 173 172 170 173 176 176 174 171 167 161 154 147 143 140 131 128 126 121 115 118 120 123 129 117 100 91 87 80 78 73 73 64 62 62 58 53
338 302 135 73 99 358 83 212 141 95 323 208 132 272 55 102 102 32 269 198 186 125 130 170 60 310 192 240 204 159 225 247 1 120 148 224 193 159 168 171 139 137 151 159 163 167 175 174 172 169 169 172 172 170 170 170 170 170 170 172 174 176 176 177 178 181 181 181 177 169 164 158 151 151 145 136 131 129 127 128 129 127 123 130 115 106 110 96 86 75 62 64 59 60 58 57 53
306 347 337 103 103 173 45 28 339 313 229 159 98 240 198 178 103 339 326 40 161 127 164 85 175 310 346 236 182 134 183 66 180 107 146 220 168 162 171 162 139 144 154 159 164 162 174 178 174 171 172 174 175 171 171 171 172 171 172 174 175 178 181 183 185 184 186 185 181 175 168 164 159 163 141 135 132 133 130 110 108 100 84 65 125 133 108 104 112 91 80 69 68 69 64 61 57
320 23 358 20 354 60 164 129 250 212 275 169 175 175 139 127 109 64 333 50 349 40 22 172 65 34 19 288 334 243 332 235 99 190 166 174 151 159 164 161 133 152 155 160 163 164 168 177 179 173 174 176 176 171 173 173 174 173 172 176 178 180 184 187 189 190 190 189 186 180 173 167 170 166 151 139 138 136 131 129 129 104 119 103 108 74 4 153 152 123 99 87 81 74 71 66 60
161 95 314 86 296 48 342 199 256 158 278 166 187 116 179 108 109 73 304 61 295 137 271 333 80 116 249 339 235 276 353 18 119 103 130 126 145 157 165 163 139 169 152 159 165 161 167 173 181 177 175 177 177 173 175 175 176 174 174 178 181 182 185 189 192 194 191 193 187 180 176 173 173 162 138 139 141 139 132 134 135 120 118 152 122 108 107 74 97 108 103 99 88 81 82 71 69
351 88 343 67 9 11 7 291 258 247 260 322 6 121 98 123 97 114 340 250 342 93 94 210 155 69 261 354 228 275 320 52 94 117 133 138 149 163 163 169 151 171 165 151 163 159 166 175 179 180 178 179 178 175 178 178 180 176 178 180 183 183 187 191 192 196 196 194 183 183 180 177 181 163 150 150 153 153 149 141 143 146 140 166 229 151 123 126 115 112 110 110 102 93 83 81 76
2 93 322 119 126 328 332 304 27 263 287 273 103 140 112 41 23 68 165 339 218 90 225 206 150 173 280 308 306 308 225 166 110 93 158 154 156 157 163 184 160 157 176 133 156 161 168 175 177 179 182 181 179 179 181 182 182 181 181 185 185 187 190 190 193 195 197 196 182 181 182 184 176 164 161 157 156 157 153 149 154 160 174 207 175 152 150 139 127 122 114 118 109 99 94 91 85
0 1 146 63 29 351 309 280 258 312 302 302 39 339 97 92 89 359 356 277 329 345 309 322 15 264 45 271 216 259 56 125 127 181 204 168 153 158 169 194 166 160 163 144 151 158 165 176 177 178 180 183 183 180 183 184 184 184 185 187 189 191 191 189 191 193 191 184 182 181 183 186 182 167 165 161 154 156 156 157 148 144 143 177 176 147 150 131 138 144 120 119 110 106 103 97 87
16 5 8 114 253 180 245 287 303 295 329 9 30 313 292 105 76 35 352 29 319 357 253 98 277 166 282 293 289 289 114 133 231 223 222 163 154 168 174 187 151 173 152 148 144 155 162 170 180 179 177 181 183 183 183 185 187 186 185 187 191 193 193 190 190 188 181 178 182 184 182 186 186 171 170 168 155 150 152 146 144 147 150 146 149 140 136 138 147 133 125 119 116 118 114 101 92
103 100 68 81 236 317 267 338 267 314 353 337 190 272 294 67 127 186 129 349 332 20 21 216 254 66 295 221 256 300 176 267 153 156 181 143 174 167 177 153 156 160 142 147 145 156 160 168 177 181 181 179 181 183 185 186 186 186 187 188 190 192 193 191 188 182 182 179 181 181 184 186 172 170 171 159 153 153 155 151 147 150 152 155 153 149 149 147 153 132 138 129 132 128 118 103 88
105 288 115 287 353 297 281 255 309 6 313 254 259 274 300 120 239 149 93 341 293 137 226 216 95 143 260 332 312 291 241 216 158 171 173 171 176 129 172 161 150 148 145 149 154 157 162 169 175 178 180 180 180 182 186 186 187 186 188 189 189 191 193 190 187 181 179 181 182 181 186 175 165 165 162 153 157 154 153 151 154 154 157 157 154 159 163 157 157 144 153 141 140 135 121 106 87
26 123 84 136 310 34 257 131 214 178 309 218 242 153 348 272 145 86 173 202 278 206 256 317 191 99 257 152 285 236 215 194 170 155 118 135 143 135 93 176 169 123 160 151 152 157 169 169 174 177 183 182 181 182 184 189 188 187 185 186 187 189 191 187 181 179 177 182 183 177 172 164 161 159 150 154 150 150 151 150 156 160 160 161 163 170 167 164 161 160 160 151 145 135 121 101 87
150 78 86 39 276 76 278 189 14 68 275 204 286 173 88 315 162 124 257 169 243 293 45 271 342 201 234 218 238 227 207 161 165 116 106 98 76 97 63 155 188 137 185 173 159 168 167 172 174 179 182 186 186 185 185 185 189 186 185 183 183 185 185 180 176 177 179 176 170 163 155 150 149 147 148 149 150 148 145 149 156 159 164 165 171 176 169 169 165 167 163 153 148 136 119 94 81
53 81 28 31 299 138 262 115 44 310 259 289 284 264 61 298 303 15 265 51 297 273 255 215 203 252 244 237 243 190 132 125 108 102 98 107 102 136 86 76 188 219 208 213 186 175 171 176 181 180 188 187 187 187 188 188 189 185 184 183 180 180 179 176 176 174 173 166 163 159 147 142 143 142 146 148 145 142 147 150 153 159 165 166 174 176 174 171 164 174 169 155 148 125 97 82 59
58 84 120 290 211 286 233 267 290 220 293 290 327 189 93 355 341 278 8 316 270 286 286 264 274 256 242 256 21 119 137 137 146 139 155 160 147 169 203 216 188 208 206 218 224 196 178 182 185 185 185 191 187 187 190 189 185 186 181 181 182 179 178 174 175 171 167 158 156 154 152 148 149 151 151 146 146 148 149 152 154 158 165 165 169 175 176 172 168 177 172 159 138 120 107 82 42
116 166 113 222 197 234 198 273 313 13 312 279 288 14 69 282 45 263 314 283 281 296 280 285 276 270 284 284 344 130 147 160 165 176 170 177 186 191 200 200 210 220 232 227 228 212 201 183 184 186 187 188 189 189 189 186 181 182 182 179 180 177 177 174 172 170 165 159 160 159 157 158 156 155 155 157 155 159 157 157 159 158 165 165 167 168 173 172 174 182 179 155 138 127 113 114 102
238 132 234 243 216 257 301 295 294 297 256 321 354 315 12 277 320 236 234 267 307 255 275 301 277 265 258 286 125 167 170 181 192 191 194 199 196 199 197 202 210 213 214 208 209 205 201 200 192 190 186 185 186 190 188 184 180 179 182 181 177 176 176 178 173 171 167 163 164 162 161 162 159 158 162 158 151 154 160 161 163 163 161 163 160 156 162 165 179 181 182 152 130 125 131 148 150
263 106 194 231 228 272 270 298 308 310 347 322 325 312 332 300 267 346 269 309 265 257 233 238 271 277 254 260 271 160 188 196 212 215 220 218 215 212 206 200 199 206 207 203 203 207 203 203 199 193 188 184 186 188 185 185 177 178 185 182 179 177 177 179 176 173 170 168 167 165 166 161 163 162 160 160 158 155 153 159 162 158 148 159 150 143 142 158 158 133 129 122 143 149 150 175 171
125 206 204 208 287 291 264 274 297 311 315 342 323 339 280 317 326 287 280 250 270 250 242 234 247 266 263 263 276 184 193 211 213 218 225 221 214 218 223 231 231 216 185 182 203 204 205 202 200 197 184 189 188 187 190 182 175 184 185 184 179 182 180 181 179 177 174 173 169 169 163 165 166 168 165 166 163 161 160 162 163 153 149 161 149 145 143 134 128 132 136 149 176 181 175 187 195
246 280 239 220 224 234 282 298 284 306 299 290 301 249 304 335 286 257 254 249 260 256 248 246 253 259 265 271 266 275 250 219 217 221 222 228 231 230 222 218 204 208 191 206 196 202 201 200 201 197 193 187 193 188 188 177 185 185 183 182 181 186 180 179 185 183 180 172 172 170 166 173 169 168 171 169 168 165 166 165 164 162 161 162 164 148 153 147 146 151 153 170 188 205 211 183 188
213 244 260 254 233 238 256 281 322 321 275 265 255 341 297 303 296 251 265 266 260 265 262 254 259 273 275 270 254 249 254 254 248 223 217 217 217 221 217 213 216 200 181 203 200 197 191 199 196 189 200 190 193 190 187 187 185 181 183 180 186 182 178 185 187 187 174 173 177 177 175 171 169 167 173 171 171 166 169 168 163 163 162 167 165 157 154 157 157 159 164 178 194 211 192 169 141
222 265 238 263 314 284 326 302 297 287 280 259 310 298 269 228 245 327 274 277 280 271 263 269 270 272 278 274 267 255 254 262 260 251 242 239 227 228 227 225 219 178 199 208 202 190 200 196 190 193 193 196 190 186 192 191 184 179 179 183 189 178 183 186 186 180 178 176 178 178 176 176 173 170 172 175 157 172 165 167 166 170 167 170 163 172 164 167 168 168 174 185 192 191 190 161 143
258 260 7 308 300 297 290 307 294 284 285 276 297 272 270 250 281 270 264 272 273 276 289 268 273 278 272 262 259 256 251 250 261 278 247 235 230 221 232 217 200 183 207 203 186 202 195 192 192 195 195 194 192 184 191 185 190 182 184 185 185 177 185 183 178 183 183 175 180 182 183 176 177 173 173 168 166 169 168 168 170 172 174 173 173 176 181 167 174 173 177 183 178 185 176 176 149
284 348 321 288 272 310 294 290 290 276 267 267 247 271 275 259 157 280 262 256 273 294 289 271 262 263 265 260 259 257 249 250 242 252 296 260 238 210 228 206 190 211 199 194 195 199 195 184 197 196 195 192 187 194 192 189 181 193 184 181 179 184 176 174 182 181 182 184 180 177 180 179 172 167 168 168 170 161 169 171 181 169 176 186 183 179 175 179 172 178 179 179 177 177 177 166 156
30 346 335 326 322 309 290 287 276 289 285 239 213 250 263 285 177 245 267 275 281 296 295 292 271 258 261 265 266 282 290 281 280 274 255 267 247 215 224 202 212 220 187 204 198 188 169 192 195 194 193 184 182 196 187 189 184 192 184 171 179 181 172 174 180 181 186 186 179 175 174 174 167 164 161 167 167 162 168 177 177 179 192 183 189 181 175 181 176 179 176 173 170 162 163 163 164
291 0 323 300 332 314 284 262 267 222 255 206 177 245 303 249 226 238 249 270 298 291 289 290 287 269 267 293 318 319 284 291 321 344 347 347 349 359 348 344 326 303 307 268 193 155 188 192 184 194 186 175 183 186 185 186 171 169 175 183 169 163 175 168 170 180 181 179 176 174 173 168 167 160 166 165 168 167 167 174 184 194 189 182 188 181 168 170 167 163 174 158 152 152 151 172 161
355 17 232 312 350 311 276 272 253 267 253 159 133 262 255 249 240 256 265 270 280 300 289 288 285 291 341 351 327 307 351 20 36 33 27 26 26 21 32 12 20 14 318 311 118 184 202 162 173 164 167 170 184 180 163 168 167 156 155 163 162 158 166 166 168 170 169 171 171 172 167 164 162 157 156 164 165 169 170 176 183 194 189 181 175 168 174 169 169 164 173 160 168 163 173 176 165
282 278 94 231 332 268 278 213 294 334 256 181 147 205 270 268 267 256 269 281 278 290 287 285 289 305 350 335 301 2 45 48 41 34 27 26 25 27 28 23 22 17 6 356 226 191 95 128 136 144 152 159 161 165 162 166 157 145 140 147 158 162 155 162 155 147 153 158 158 165 162 160 159 155 159 159 171 169 172 178 186 190 172 170 173 180 168 171 164 175 165 170 169 173 177 176 172
269 15 296 304 190 274 290 301 267 230 261 360 114 270 236 253 267 272 267 283 294 292 286 285 297 342 340 320 357 59 58 45 42 36 31 28 27 28 26 24 21 22 18 4 358 48 57 55 80 111 119 139 160 152 149 148 143 137 131 133 135 140 140 144 149 146 138 132 139 150 153 150 152 152 154 157 162 171 172 179 186 164 168 162 172 171 165 172 171 167 182 162 166 189 172 189 172
306 180 252 261 197 249 340 286 350 166 105 334 175 234 304 303 265 268 267 268 290 288 283 292 315 345 354 33 64 60 50 39 38 32 30 31 30 30 31 28 24 21 21 18 13 27 47 35 46 67 73 98 110 96 96 102 105 107 113 113 115 113 118 123 123 113 114 115 119 128 136 141 143 137 143 151 154 164 167 176 177 172 162 165 165 173 178 172 163 167 181 191 177 176 183 182 188
292 227 217 214 234 270 251 303 338 68 116 228 278 267 232 257 292 286 292 287 283 278 281 303 316 338 54 68 65 60 51 45 37 23 23 29 29 31 34 33 29 28 27 25 28 35 37 34 32 40 45 59 80 80 77 80 75 75 74 75 80 84 88 97 101 103 105 116 119 128 137 136 137 133 135 144 152 164 171 177 178 172 161 161 165 166 183 159 169 165 183 206 190 166 186 182 192
224 265 273 295 263 222 245 300 258 306 251 289 297 252 264 269 279 283 277 276 268 269 290 300 302 54 83 78 70 62 57 51 36 27 23 25 29 27 29 26 28 29 29 31 34 31 31 29 30 27 33 32 39 61 68 70 73 69 63 66 70 74 77 75 93 91 111 110 118 139 139 139 144 145 140 147 158 169 172 178 177 175 164 165 164 169 168 170 174 188 184 201 210 203 185 191 174
226 232 243 246 259 271 266 252 278 294 306 307 282 277 288 296 282 278 277 267 273 284 300 307 25 95 82 78 70 64 63 56 40 33 30 29 32 31 28 27 29 28 29 32 38 38 35 28 28 26 19 26 40 44 46 48 48 46 55 44 51 45 54 66 57 90 101 111 127 139 148 149 157 159 161 165 170 175 179 178 179 169 168 160 166 173 186 182 190 190 207 192 198 222 192 165 138
241 259 262 255 259 282 282 276 275 301 302 249 261 279 309 289 285 290 281 302 307 305 301 14 67 78 75 71 70 67 59 56 40 44 38 33 30 29 30 29 24 29 28 29 38 38 41 41 42 31 20 23 27 34 35 49 55 39 35 43 63 28 49 48 55 55 71 112 133 144 153 159 168 171 174 160 173 174 184 174 170 177 171 174 181 192 188 194 195 189 187 185 181 194 217 181 175
229 243 256 273 242 272 253 282 281 324 315 290 322 354 312 301 296 284 285 320 314 323 59 96 87 81 74 71 69 61 69 60 46 42 36 36 30 29 31 31 25 30 20 28 35 37 40 41 46 41 31 31 29 26 31 37 26 73 99 59 84 36 31 50 22 5 61 45 80 108 132 155 164 179 181 175 176 177 181 182 183 183 176 190 195 191 188 192 186 185 166 196 211 191 205 183 184
271 250 242 286 266 254 280 278 4 325 18 270 295 316 290 285 285 281 314 1 36 44 79 73 90 79 72 69 67 66 60 51 47 46 42 38 35 32 34 32 33 34 32 33 30 37 34 36 37 43 40 42 33 28 39 41 32 33 49 31 56 62 42 42 52 355 44 57 33 71 118 140 159 182 186 187 188 198 198 187 198 183 186 180 181 192 189 198 196 191 183 191 205 242 222 202 188
270 294 293 267 254 329 305 298 343 344 103 280 284 295 286 280 274 329 12 91 72 65 70 70 66 76 72 62 59 67 64 55 51 45 43 41 42 40 37 35 30 37 36 34 32 34 36 34 34 35 38 40 38 35 40 34 61 57 46 55 47 74 71 24 36 21 21 44 37 29 41 96 126 177 201 200 206 205 198 201 192 175 194 186 189 192 195 206 196 195 196 207 175 200 215 221 211
289 198 231 266 304 262 206 269 311 279 318 115 12 343 317 266 266 77 56 50 76 51 70 67 58 69 81 78 62 52 61 58 59 52 44 40 44 42 39 36 34 42 42 39 35 35 40 38 37 38 38 35 36 36 39 36 29 28 20 22 27 14 13 23 17 0 6 360 7 15 30 73 115 168 199 204 202 219 213 216 192 198 191 199 195 203 202 206 200 201 197 195 191 198 219 223 230
308 245 207 209 199 183 301 309 18 12 330 339 59 351 307 268 275 262 122 49 53 39 68 63 63 61 66 67 66 57 56 50 58 54 46 38 44 45 43 43 43 40 42 40 39 40 41 40 39 40 41 37 33 31 35 47 50 49 43 41 32 26 23 14 8 327 312 329 261 315 340 341 73 356 287 235 237 215 230 225 206 187 200 198 200 213 216 211 218 211 205 199 207 218 209 199 232
33 269 158 153 158 132 138 348 47 350 200 273 71 266 271 323 317 286 104 85 71 58 60 69 68 65 62 71 71 65 58 53 49 52 43 43 35 43 41 41 39 44 36 36 46 45 43 43 43 46 46 43 36 36 35 38 44 46 53 58 58 55 39 10 357 9 350 304 328 315 293 312 287 206 283 280 266 251 250 249 227 209 198 198 208 211 222 217 217 212 206 204 214 215 197 214 216
258 239 142 136 113 334 317 27 167 241 267 305 342 179 252 292 278 250 108 101 110 78 76 71 77 76 75 70 63 62 60 60 60 52 43 42 40 38 45 37 36 36 33 37 45 44 45 42 43 42 45 44 39 37 40 37 46 42 40 38 40 34 32 17 9 5 13 14 4 337 322 280 288 250 219 250 225 241 249 271 259 251 234 221 186 206 220 228 227 233 211 215 218 215 211 220 222
216 223 131 86 95 207 175 182 228 233 20 288 291 197 285 246 253 47 140 109 101 114 113 98 83 74 73 70 62 58 50 53 65 66 49 34 38 37 39 44 33 35 36 43 43 45 47 45 46 47 48 45 40 40 42 39 44 46 49 42 39 25 24 19 10 20 20 12 20 6 358 330 311 295 267 234 229 202 211 235 252 261 261 260 209 225 233 232 225 225 224 218 216 222 213 220 218
254 183 79 54 96 181 176 143 121 328 111 269 253 176 216 280 267 1 10 104 178 176 139 106 88 83 80 76 61 53 45 39 40 65 65 46 33 38 37 51 47 36 31 36 41 46 48 49 46 46 42 40 39 42 44 44 42 41 45 42 44 32 24 21 25 21 16 11 17 11 4 5 350 326 312 301 284 256 226 226 224 235 245 256 250 237 243 247 246 233 227 221 220 224 222 216 221
122 86 44 358 12 354 50 96 119 49 299 255 235 218 181 277 280 190 144 208 174 140 126 121 100 82 71 66 76 75 58 41 39 45 51 51 24 30 29 49 45 40 35 38 40 42 45 45 45 51 42 40 38 39 41 41 41 40 41 37 38 35 29 33 31 24 16 15 12 4 5 353 3 2 350 335 325 323 307 266 235 247 252 257 263 269 251 245 249 237 238 229 228 228 230 229 232
123 60 99 19 329 21 41 345 48 119 266 256 258 226 188 183 281 287 248 288 160 162 162 153 131 109 96 85 72 67 65 64 46 39 43 34 27 27 34 45 42 39 38 36 36 38 41 43 42 49 40 36 38 38 43 41 40 39 39 39 39 34 33 32 33 28 19 20 13 9 3 6 3 359 4 358 354 339 325 309 301 285 275 264 263 257 270 261 261 257 254 239 236 231 237 239 240
74 82 47 105 263 36 320 36 295 202 214 237 90 69 45 237 224 227 38 21 45 44 106 131 127 122 110 105 97 81 66 62 58 54 54 48 39 25 32 37 38 37 38 36 35 36 38 41 40 47 40 32 35 38 43 41 42 40 38 37 36 32 34 34 33 31 23 25 18 18 15 10 2 5 356 358 351 349 348 340 317 296 275 258 256 270 267 273 271 266 260 259 251 241 232 230 234
110 135 146 92 63 160 242 250 209 290 286 242 136 346 227 241 283 28 61 30 42 86 91 100 109 114 112 102 92 85 76 65 53 57 54 51 40 30 30 35 38 38 36 38 38 40 39 44 41 47 42 35 36 41 42 44 42 41 39 43 41 36 35 33 30 28 21 26 25 25 22 15 6 1 353 354 341 347 354 349 343 318 291 285 277 269 268 268 268 263 261 260 259 253 245 239 240
200 142 143 180 151 163 258 206 229 232 219 283 269 31 231 130 252 64 88 84 76 80 85 90 90 95 99 96 88 75 64 47 52 55 57 51 41 35 34 35 39 38 34 34 34 32 36 37 37 40 38 30 34 35 37 39 38 37 39 42 46 44 44 42 38 32 25 23 18 24 21 17 15 356 353 340 345 352 351 351 352 350 336 323 314 303 289 285 274 271 266 259 265 263 262 252 251
243 171 80 84 239 152 192 210 177 251 304 315 271 213 197 154 105 92 83 84 78 86 93 97 93 88 89 73 69 72 64 60 43 63 59 50 42 36 38 39 38 42 39 38 37 32 35 32 33 38 39 32 33 32 34 36 33 32 35 36 34 37 41 46 45 37 28 29 19 25 17 15 8 356 349 349 346 349 349 350 350 348 343 339 331 318 310 304 296 292 283 279 272 268 266 264 258
238 92 217 210 177 112 355 344 288 86 44 249 148 304 324 97 81 62 73 81 81 86 94 98 105 106 102 108 104 89 106 86 78 72 73 61 49 42 47 48 43 39 38 35 37 37 40 33 32 31 29 30 27 25 22 23 21 27 26 31 31 33 31 30 24 17 17 14 23 17 15 357 356 356 343 344 341 344 345 351 347 343 342 336 332 326 316 306 300 294 286 282 278 272 263 263 264
90 142 240 210 105 123 127 215 322 83 215 264 104 203 279 151 275 129 94 105 128 114 125 120 119 127 127 151 152 153 134 126 106 95 86 90 82 61 48 44 43 39 31 26 24 29 35 37 34 36 31 29 20 18 16 13 13 10 8 7 13 23 29 28 27 19 12 13 13 13 3 4 2 344 341 330 333 334 336 344 346 341 338 333 326 319 315 307 304 293 279 274 267 273 272 271 263
164 189 225 111 273 292 316 88 268 252 248 270 281 251 239 203 224 136 215 168 171 160 155 148 152 161 172 171 175 172 133 114 107 106 98 82 70 58 56 52 48 38 28 24 17 18 26 32 28 41 38 32 26 21 17 6 8 7 357 354 352 360 9 12 11 11 8 9 6 2 3 346 341 345 342 340 336 329 329 327 334 333 332 331 329 324 320 313 305 299 287 277 274 266 261 264 262
25 68 30 224 108 168 177 201 195 158 262 268 286 301 264 185 211 175 192 184 171 166 165 179 183 188 187 178 182 180 174 165 155 154 150 149 140 124 103 81 54 32 21 360 360 13 20 23 30 29 30 25 19 17 18 5 349 353 343 344 337 348 358 7 5 2 360 358 351 349 347 348 343 338 328 322 321 324 326 327 324 320 315 317 317 315 317 316 313 295 288 288 278 270 264 260 265
18 73 273 272 233 235 138 315 162 179 197 220 267 273 266 268 195 181 198 185 175 159 160 172 198 198 193 188 177 184 181 173 175 177 175 162 158 127 101 110 63 351 351 341 2 5 345 26 17 41 56 357 18 347 0 333 339 323 330 324 312 327 330 345 353 348 340 326 326 326 322 310 323 325 328 328 329 327 323 321 318 316 312 305 301 298 300 303 304 300 298 285 284 279 271 268 261
163 174 211 188 183 266 250 257 123 165 216 239 244 257 277 208 338 226 167 142 133 157 165 185 192 182 192 191 190 184 188 194 188 173 161 150 141 132 143 138 89 81 89 135 199 161 23 9 246 308 31 320 193 295 260 265 284 277 288 292 300 310 316 320 320 306 294 280 282 279 277 293 292 289 296 298 304 308 315 321 324 319 315 305 290 283 284 282 279 283 281 284 288 285 280 275 268